EW6480 Weather Reports


time (UTC)temp
C
wind
direction
speed
KPH
gust
KPH
rain 1hr
cm
rain 24hr
cm
rain mn
cm
humidity
%
barometer
mb
20260507201600 17 266 4.8 12.9 0.00 0.08 0.08 31 1005.5
20260507200056 17 166 1.6 14.5 0.00 0.08 0.08 32 1005.6
20260507194630 17 172 0.0 8.0 0.00 0.08 0.08 32 1005.7
20260507193053 17 252 1.6 9.7 0.00 0.08 0.08 32 1005.8
20260507191552 17 171 0.0 4.8 0.00 0.08 0.08 29 1006.0
20260507190049 17 225 3.2 12.9 0.00 0.08 0.08 29 1006.1
20260507184552 17 149 6.4 9.7 0.00 0.08 0.08 30 1006.1
20260507183045 17 134 0.0 11.3 0.00 0.08 0.08 30 1006.2
20260507181544 17 301 6.4 16.1 0.00 0.08 0.08 31 1006.4
20260507180041 17 148 4.8 16.1 0.00 0.08 0.08 37 1006.4
20260507174547 17 235 1.6 8.0 0.00 0.08 0.08 37 1006.5
20260507173039 16 297 0.0 6.4 0.00 0.08 0.08 39 1006.5
20260507171637 16 247 3.2 12.9 0.00 0.08 0.08 38 1006.6
20260507170039 16 72 4.8 17.7 0.00 0.08 0.08 42 1006.7
20260507164532 16 265 0.0 9.7 0.00 0.08 0.08 46 1006.9
20260507163030 15 129 6.4 11.3 0.00 0.08 0.08 48 1007.1
20260507161534 15 283 3.2 8.0 0.00 0.08 0.08 53 1007.2
20260507160027 15 271 0.0 8.0 0.00 0.08 0.08 55 1007.3
20260507154532 15 215 3.2 14.5 0.00 0.08 0.08 54 1007.4
20260507153037 15 316 0.0 9.7 0.00 0.08 0.08 57 1007.6
20260507151525 15 172 0.0 4.8 0.00 0.08 0.08 58 1007.7
20260507150026 14 205 1.6 6.4 0.00 0.08 0.08 60 1007.8
20260507144524 14 17 0.0 11.3 0.00 0.08 0.08 60 1008.0
20260507143026 13 174 0.0 8.0 0.00 0.08 0.08 60 1008.1
20260507141522 13 329 0.0 8.0 0.00 0.08 0.08 61 1008.2
20260507140021 13 267 0.0 4.8 0.00 0.08 0.08 61 1008.2
20260507134520 12 227 1.6 9.7 0.00 0.08 0.08 64 1008.1
20260507133019 12 254 1.6 12.9 0.00 0.08 0.08 68 1008.2
20260507131520 12 225 1.6 4.8 0.00 0.08 0.08 74 1008.4
20260507130022 11 236 0.0 3.2 0.00 0.08 0.08 80 1008.3
20260507124520 11 235 1.6 6.4 0.00 0.08 0.08 81 1008.7
20260507123012 10 250 1.6 9.7 0.00 0.08 0.08 84 1008.6
20260507121511 10 230 0.0 3.2 0.00 0.08 0.08 86 1008.6
20260507120019 10 6 1.6 6.4 0.00 0.08 0.08 86 1008.4
20260507114509 10 187 1.6 4.8 0.00 0.08 0.08 86 1008.5
20260507113008 10 251 0.0 1.6 0.00 0.08 0.08 86 1008.3
20260507111509 10 290 0.0 3.2 0.00 0.08 0.08 86 1008.4
20260507110008 10 210 0.0 1.6 0.00 0.08 0.08 86 1008.0
20260507104506 10 207 0.0 1.6 0.03 0.08 0.08 86 1008.4
20260507103008 10 244 0.0 3.2 0.05 0.08 0.08 86 1008.4
20260507101502 10 198 0.0 1.6 0.08 0.08 0.08 86 1007.7
20260507100001 10 221 0.0 4.8 0.08 0.08 0.08 86 1007.8
20260507094600 10 309 0.0 1.6 0.05 0.05 0.05 86 1007.7
20260507093102 10 286 0.0 1.6 0.03 0.03 0.03 86 1007.7
20260507091555 10 233 0.0 3.2 0.00 0.00 0.00 86 1007.6
20260507090054 10 200 0.0 6.4 0.00 0.00 0.00 86 1008.0
20260507084552 10 292 1.6 8.0 0.00 0.00 0.00 86 1007.9
20260507083049 11 215 0.0 4.8 0.00 0.00 0.00 86 1007.5
20260507081547 11 215 0.0 4.8 0.00 0.00 0.00 85 1007.2
20260507080046 12 198 0.0 6.4 0.00 0.00 0.00 85 1007.6
20260507074541 12 274 1.6 6.4 0.00 0.00 0.00 84 1007.1
20260507073038 12 229 0.0 6.4 0.00 0.00 0.00 84 1007.2
20260507071559 13 157 1.6 6.4 0.00 0.00 0.00 84 1006.4
20260507070035 13 293 0.0 3.2 0.00 0.00 0.00 84 1006.7
20260507064533 13 330 0.0 3.2 0.00 0.00 0.00 84 1006.7
20260507063034 13 214 0.0 8.0 0.00 0.00 0.00 84 1006.7
20260507061530 13 302 0.0 3.2 0.00 0.00 0.00 84 1006.5
20260507060037 14 214 0.0 3.2 0.00 0.00 0.00 85 1006.7
20260507054526 14 228 1.6 6.4 0.00 0.00 0.00 85 1006.8
20260507053025 15 203 0.0 4.8 0.00 0.00 0.00 85 1007.0
20260507051529 15 283 0.0 9.7 0.00 0.00 0.00 85 1006.6
20260507050022 15 151 0.0 8.0 0.00 0.00 0.00 85 1006.6
20260507044521 15 210 1.6 6.4 0.00 0.00 0.00 86 1006.7
20260507043016 15 268 3.2 9.7 0.00 0.00 0.00 85 1006.5
20260507041514 15 224 0.0 8.0 0.00 0.00 0.00 84 1006.6
20260507040011 15 252 1.6 4.8 0.00 0.00 0.00 84 1006.8
20260507034526 15 205 0.0 8.0 0.00 0.00 0.00 84 1006.7
20260507033015 15 224 3.2 11.3 0.00 0.00 0.00 85 1006.4
20260507031509 15 166 4.8 14.5 0.00 0.00 0.00 85 1006.2
20260507030008 15 234 1.6 6.4 0.00 0.00 0.00 85 1006.2
20260507024508 15 224 3.2 9.7 0.00 0.00 0.00 85 1006.1
20260507023016 15 218 6.4 14.5 0.00 0.00 0.00 84 1006.3
20260507021507 15 283 4.8 12.9 0.00 0.00 0.00 84 1006.2
20260507020006 15 227 4.8 9.7 0.00 0.00 0.00 84 1006.1
20260507014510 15 272 3.2 14.5 0.00 0.00 0.00 84 1006.2
20260507013003 15 285 3.2 12.9 0.00 0.00 0.00 84 1006.2
20260507011505 15 212 4.8 11.3 0.00 0.00 0.00 84 1006.6
20260507010003 15 195 0.0 12.9 0.00 0.00 0.00 84 1006.7
20260507004502 15 176 3.2 17.7 0.00 0.00 0.00 84 1006.7
20260507003002 15 231 3.2 9.7 0.00 0.00 0.00 84 1006.6
20260507001602 15 225 1.6 9.7 0.00 0.00 0.00 84 1006.5
20260507000059 15 296 4.8 11.3 0.00 0.00 0.00 84 1006.2
20260506234556 15 250 1.6 12.9 0.00 0.00 0.00 84 1006.3
20260506233058 15 225 3.2 9.7 0.00 0.00 0.00 84 1006.2
20260506231553 15 218 0.0 16.1 0.00 0.00 0.00 85 1006.1
20260506230051 16 273 0.0 8.0 0.00 0.00 0.00 85 1006.3
20260506224550 16 186 0.0 11.3 0.00 0.00 0.00 85 1006.3
20260506223048 16 264 0.0 11.3 0.00 0.00 0.00 84 1006.2
20260506221546 16 261 1.6 12.9 0.00 0.00 0.00 84 1006.7
20260506220048 16 247 3.2 14.5 0.00 0.00 0.00 85 1006.7
20260506214550 16 222 1.6 17.7 0.00 0.00 0.00 84 1007.0
20260506213042 17 292 4.8 16.1 0.00 0.00 0.00 84 1007.1
20260506211540 17 234 3.2 12.9 0.00 0.00 0.00 84 1007.0
20260506210041 16 235 6.4 14.5 0.00 0.00 0.00 83 1007.0
20260506204548 17 195 3.2 19.3 0.00 0.00 0.00 83 1007.3
20260506203037 17 238 4.8 19.3 0.00 0.00 0.00 81 1007.3